Regional Weather Roundup
Issued by NWS

Home | Current Version | Previous Version | Graphics & Text | Print | Product List | Glossary On
Versions: 1 2 3 4 5 6 7 8 9 10 11 12 13 14 15 16 17 18 19 20 21 22 23 24 25 26 27 28 29 30 31 32 33 34 35 36 37 38 39 40 41 42 43 44 45 46 47 48 49 50
000
ASUS43 KLOT 280910
RWRIL

ILLINOIS REGIONAL WEATHER ROUNDUP
NATIONAL WEATHER SERVICE CHICAGO/ROMEOVILLE IL
300 AM CST FRI NOV 28 2014

NOTE: "FAIR" INDICATES FEW OR NO CLOUDS BELOW 12,000 FEET WITH NO
SIGNIFICANT WEATHER AND/OR OBSTRUCTIONS TO VISIBILITY.

* THESE STATIONS ARE NOT UNDER NWS QUALITY CONTROL. THEY ALSO MAY NOT
  REPORT WEATHER SUCH AS PRECIPITATION OR FOG.

ILZ001-002-007-009-015-016-024-281000-
NORTHWEST ILLINOIS

CITY           SKY/WX    TMP DP  RH WIND       PRES   REMARKS
MOLINE         CLOUDY    16   9  74 SE6       30.33F WCI   7
STERLING*      CLOUDY    16   9  73 S3        30.34F
SAVANNA*       FLURRIES  16   8  70 SE6       30.33F WCI   7
$$

ILZ003-004-008-010-011-017-018-281000-
NORTH CENTRAL ILLINOIS

CITY           SKY/WX    TMP DP  RH WIND       PRES   REMARKS
ROCKFORD       CLOUDY    15   7  70 CALM      30.36F
FREEPORT*      CLOUDY    15   7  72 S3        30.35S
ROCHELLE*      CLOUDY    14  10  83 S5        30.35F WCI   7
DE KALB*       CLOUDY    15   8  74 S3        30.34F
PERU*          CLOUDY    18  11  74 SE3       30.36F
$$

ILZ005-006-012>014-019>023-281000-
NORTHEAST ILLINOIS

CITY           SKY/WX    TMP DP  RH WIND       PRES   REMARKS
CHICAGO-OHARE  CLOUDY    19  11  70 SW5       30.36F WCI  12
CHICAGO-MIDWAY CLOUDY    21  11  65 SW6       30.37F WCI  13
AURORA         CLOUDY    16   9  74 SE3       30.36F
LANSING*       MOCLDY    20  13  73 SW3       30.38F
JOLIET*        MOCLDY    17  10  74 CALM      30.38F
WAUKEGAN       CLOUDY    16  10  77 CALM      30.36S
DUPAGE AIRPORT MOCLDY    16  12  84 CALM      30.35F
KANKAKEE*      MOCLDY   N/A N/A N/A SW5       30.39F
WHEELING       CLOUDY    18  11  74 CALM      30.38S
MORRIS*        CLOUDY    16  13  86 CALM      30.37F
ROMEOVILLE*    MOCLDY    17  12  82 CALM      30.37S
NORTHERLY ISL    N/A     21  11  65 W3          N/A
$$

LMZ740>746-281000-
SOUTHERN LAKE MICHIGAN

STATION/POSITION SKY/WX   TEMP    WIND        PRES    VSBY  WAVE
                          AIR SEA DIR/SP/G                  HT/PER
                          (F)     (DEG/KT/KT) (MB)    (MI)  (FT/S)
SOUTHERN BUOY              24 42  260/  6/ 10 1028.8R         2/ 6
WAUKEGAN HARBOR            17     250/  6/  8   N/A
HARRISON CRIB              21     260/ 10/ 12   N/A
BURNHAM HARBOR             22     260/  5/  8   N/A
CALUMET HARBOR             20     210/  4/  6 1027.3R
MICHIGAN CITY              21     180/  9/ 10   N/A
$$

ILZ025>027-034>036-040-047-049-050-058-095>099-281000-
WEST-CENTRAL ILLINOIS

CITY           SKY/WX    TMP DP  RH WIND       PRES   REMARKS
QUINCY         PTCLDY    20  13  74 SE8       30.31F WCI  10
GALESBURG*     CLOUDY    15  10  80 SE5       30.32F WCI   8
MACOMB*        CLEAR     15   9  78 SE9       30.35F WCI   3
JACKSONVILLE*  PTCLDY    21  14  72 SE6       30.36F WCI  14
PITTSFIELD*    MOCLDY    23  18  81 SE9       30.34F WCI  13
$$

ILZ028>032-037-038-041>044-048-051>054-059>061-281000-
CENTRAL ILLINOIS

CITY           SKY/WX    TMP DP  RH WIND       PRES   REMARKS
PONTIAC        CLOUDY    18  11  73 SW3       30.38F
BLOOMINGTON    MOCLDY    17  11  77 CALM      30.36F
DECATUR        CLOUDY    19  10  68 S6        30.39F WCI  11
PEORIA         CLOUDY    19   9  65 S7        30.36F WCI  10
LACON*         FLURRIES  17  10  77 SE5       30.35F WCI   9
LINCOLN*       MOCLDY    19  13  77 S3        30.40F
SPRINGFIELD    PTCLDY    18  10  71 E5        30.38F WCI  11
TAYLORVILLE    CLOUDY    19  10  68 SE6       30.40S WCI  11
$$

ILZ033-039-045-046-055>057-062-063-281000-
EAST-CENTRAL ILLINOIS

CITY           SKY/WX    TMP DP  RH WIND       PRES   REMARKS
CHAMPAIGN      CLOUDY    18  13  80 E3        30.38F
DANVILLE*      CLOUDY    19  14  82 CALM      30.37F
RANTOUL*       CLOUDY    19  13  77 CALM      30.38F
MATTOON        CLOUDY    19   9  65 CALM      30.39F
PARIS*         CLOUDY    19  15  85 CALM      30.41F
$$

ILZ079-100>102-281000-
SOUTHWEST ILLINOIS

CITY           SKY/WX    TMP DP  RH WIND       PRES   REMARKS
ALTON          MOCLDY    23  18  81 E7        30.39F WCI  15
BELLEVILLE     CLOUDY    24  21  90 SE3       30.40F
CAHOKIA*       MOCLDY    26  20  77 SE7       30.40F WCI  18
SPARTA*        PTCLDY    25  21  85 SE8       30.40S WCI  16
$$

ILZ064>066-069>071-074>076-080>082-084>086-088>090-092>094-281000-
SOUTH-CENTRAL ILLINOIS

CITY           SKY/WX    TMP DP  RH WIND       PRES   REMARKS
CARBONDALE     PTCLDY    26  22  84 CALM      30.43R
CAIRO*         PTCLDY    32  28  84 S5        30.43S WCI  27
EFFINGHAM*     MOCLDY    20  14  77 CALM      30.42S
MARION         PTCLDY    27  23  86 CALM      30.43S
MT. VERNON     PTCLDY    23  16  74 CALM      30.42F
CENTRALIA*     MOCLDY    22  18  84 CALM      30.41S
SALEM*           N/A     23  19  81 CALM      30.41F
METROPOLIS*    MOCLDY    28  28 100 CALM        N/A  FOG
$$

ILZ067-068-072-073-078-083-087-091-281000-
SOUTHEAST ILLINOIS

CITY           SKY/WX    TMP DP  RH WIND       PRES   REMARKS
LAWRENCEVILLE  CLOUDY    23  20  88 S3        30.44S
FLORA*         CLOUDY    19  18  96 CALM      30.43F
FAIRFIELD*     PTCLDY    22  19  91 CALM      30.43F
HARRISBURG*    PTCLDY    27  26  96 E3        30.44F
ROBINSON*      CLOUDY    22  18  84 CALM      30.44F
CARMI*         MOCLDY    25  25 100 CALM      30.43F
$$

ABBREVIATIONS USED IN REMARKS
   TC - TEMPERATURE IN CELSIUS
  WCI - WIND CHILL INDEX
   HX - HEAT INDEX
  VSB - VISIBILITY
$$



USA.gov is the U.S. government's official web portal to all federal, state and local government web resources and services.